Location: Long Island Community Building
(39.9491°N, 99.5338°W)
Time: 21:30:06
(UTC+00:00)

H-2A R/B - Pass Details

Date: 06 December 2019
Orbit: 501 x 541 km, 97.3° (Epoch: 19 January)

Event Time Altitude Azimuth Distance (km) Brightness Sun altitude
Rises 13:01:12 0° 10° (N) 2,612 6.1 -8.4°
Reaches altitude 10° 13:03:17 10° 9° (N) 1,727 5.2 -8.1°
Maximum altitude 13:07:00 77° 284° (WNW) 528 2.6 -7.4°
Drops below altitude 10° 13:10:43 10° 198° (SSW) 1,731 5.5 -6.8°
Sets 13:12:49 0° 196° (SSW) 2,620 6.4 -6.4°
